Regional Weather Roundup
Issued by NWS

Home | Current Version | Previous Version | Graphics & Text | Print | Product List | Glossary On
Versions: 1 2 3 4 5 6 7 8 9 10 11 12 13 14 15 16 17 18 19 20 21 22 23 24 25 26 27 28 29 30 31 32 33 34 35 36 37 38 39 40 41 42 43 44 45 46 47 48 49 50
000
ASUS44 KMEG 030700
RWRTN
TENNESSEE HOURLY STATE WEATHER ROUNDUP
NATIONAL WEATHER SERVICE MEMPHIS TN
100 AM CST SAT DEC 03 2016

TNZ002-004-019-021-049-052-054-088>092-030800-
WEST TENNESSEE

CITY           SKY/WX    TMP DP  RH WIND       PRES   REMARKS
MEMPHIS INTL   CLOUDY    50  33  52 E7        30.30R
NWS MEMPHIS      N/A     47 N/A N/A MISG        N/A
JACKSON        PTCLDY    43  32  65 E7        30.30F
DYERSBURG      CLOUDY   N/A N/A N/A E8        30.31S
PARIS          CLEAR     37  30  75 NE7       30.32F WCI  32
$$

TNZ008-025-027-028-033-062-065-066-030800-
NORTH MIDDLE TENNESSEE

CITY           SKY/WX    TMP DP  RH WIND       PRES   REMARKS
NASHVILLE      MOCLDY    40  31  70 N7        30.33F
CLARKSVILLE    CLOUDY    36  30  79 CALM      30.35
SMYRNA         CLOUDY    39  32  76 N6        30.34F WCI  35
CROSSVILLE     PTCLDY    36  27  69 N6        30.28  WCI  31
$$

TNZ061-075-076-078-094-096-097-030800-
SOUTH MIDDLE TENNESSEE

CITY           SKY/WX    TMP DP  RH WIND       PRES   REMARKS
TULLAHOMA      CLEAR     43  28  56 NE6       30.29S
WINCHESTER     CLEAR     36  34  93 CALM      30.29R
SHELBYVILLE    CLEAR     39  34  81 N5        30.31S
$$

TNZ017-018-042-046-047-030800-
NORTHEAST TENNESSEE

CITY           SKY/WX    TMP DP  RH WIND       PRES   REMARKS
TRI CITIES     CLEAR     33  27  78 CALM      30.30R
$$

TNZ012-013-036-069-073-074-030800-
CENTRAL EAST TENNESSEE

CITY           SKY/WX    TMP DP  RH WIND       PRES   REMARKS
KNOXVILLE      MOCLDY    37  31  78 NE3       30.29R
OAK RIDGE      CLOUDY    40  29  64 E3        30.31S
GATLINBURG     CLEAR     30  28  93 CALM      30.30R
$$

TNZ083-085-099-030800-
SOUTHEAST TENNESSEE

CITY           SKY/WX    TMP DP  RH WIND       PRES   REMARKS
CHATTANOOGA    CLOUDY    39  35  86 CALM      30.28
$$

SKY/WX REPORTED AS FAIR MEANS FEW OR NO CLOUDS BELOW
12 THOUSAND FEET.




USA.gov is the U.S. government's official web portal to all federal, state and local government web resources and services.